Newton, KS

6:40 PM CST on December 05, 2019 (GMT -0600)
Newton City County

Weather History for KEWK - October, 2019

Change the Weather History Date:

Thursday, October 3, 2019

  Actual Average Record
Temperature  
Mean Temperature 54 °F -  
Max Temperature 59 °F 70 °F 93 °F (2006)
Min Temperature 48 °F 50 °F 41 °F (2010)
Degree Days  
Heating Degree Days 12    
Growing Degree Days 4 (Base 50)    
Moisture  
Dew Point 48 °F    
Average Humidity 83    
Maximum Humidity 97    
Minimum Humidity 67    
Precipitation  
Precipitation 0.13 in - - ()
Sea Level Pressure  
Sea Level Pressure 30.24 in    
Wind  
Wind Speed 12 mph (NNE)    
Max Wind Speed 18 mph    
Max Gust Speed 25 mph    
Visibility 8 miles    
Events Rain    
Averages and records for this station are not official NWS values.
T = Trace of Precipitation, MM = Missing Value Source: NWS Daily Summary

Daily Weather History Graph

Daily Weather History Graph

Search for Another Location

Airport or City:

Astronomy

Oct. 03, 2019 Rise Set
Actual Time 7:26 AM CDT 7:09 PM CDT
Civil Twilight 7:00 AM CDT 7:35 PM CDT
Nautical Twilight 6:29 AM CDT 8:06 PM CDT
Astronomical Twilight 5:58 AM CDT 8:36 PM CDT
Moon 12:54 PM CDT (10/3) 10:54 PM CDT (10/3)
Length of Visible Light 12h 35m
Length of Day
11h 42m
Waxing Crescent, 30% of the Moon is Illuminated
Oct 3
Waxing Crescent
Oct 5
First Quarter
Oct 13
Full
Oct 21
Last Quarter
Oct 27
New

Hourly Weather History & Observations

Time (CDT) Temp. Dew Point Humidity Pressure Visibility Wind Dir Wind Speed Gust Speed Precip Events Conditions
12:56 AM 54.0 °F 51.1 °F 90% 30.09 in 10.0 mi NNE 16.1 mph 20.7 mph N/A   Overcast
1:56 AM 53.1 °F 50.0 °F 89% 30.12 in 10.0 mi North 18.4 mph 25.3 mph N/A   Overcast
2:56 AM 52.0 °F 48.9 °F 89% 30.14 in 10.0 mi North 13.8 mph - N/A   Overcast
3:56 AM 52.0 °F 48.0 °F 86% 30.16 in 10.0 mi North 12.7 mph - N/A   Overcast
4:56 AM 51.1 °F 48.0 °F 89% 30.20 in 10.0 mi North 10.4 mph - 0.00 in Rain Light Rain
5:35 AM 50.0 °F 48.2 °F 94% 30.21 in 10.0 mi North 9.2 mph - 0.03 in Rain Light Rain
5:56 AM 50.0 °F 48.0 °F 93% 30.21 in 10.0 mi North 13.8 mph - 0.06 in Rain Light Rain
6:56 AM 48.9 °F 48.0 °F 97% 30.21 in 10.0 mi NNE 16.1 mph - 0.05 in Rain Light Rain
7:20 AM 48.2 °F 46.4 °F 93% 30.22 in 10.0 mi North 15.0 mph - 0.02 in Rain Light Rain
7:45 AM 48.2 °F 46.4 °F 93% 30.22 in 10.0 mi North 12.7 mph - 0.02 in   Overcast
7:56 AM 48.9 °F 46.9 °F 93% 30.24 in 10.0 mi North 11.5 mph - 0.02 in   Mostly Cloudy
8:40 AM 48.2 °F 46.4 °F 93% 30.27 in 10.0 mi North 11.5 mph - N/A   Scattered Clouds
8:56 AM 48.9 °F 46.9 °F 93% 30.27 in 10.0 mi North 12.7 mph - N/A   Mostly Cloudy
9:56 AM 48.9 °F 46.0 °F 90% 30.27 in 10.0 mi North 12.7 mph - N/A   Unknown
10:56 AM 50.0 °F 46.9 °F 89% 30.27 in 10.0 mi North 16.1 mph - N/A   Partly Cloudy
11:56 AM 52.0 °F 46.0 °F 80% 30.30 in 10.0 mi NNE 10.4 mph - N/A   Overcast
12:56 PM 53.1 °F 46.9 °F 80% 30.28 in 10.0 mi North 11.5 mph - N/A   Overcast
1:56 PM 55.0 °F 46.9 °F 74% 30.28 in 10.0 mi NNE 10.4 mph - N/A   Unknown
3:56 PM 57.9 °F 48.9 °F 72% 30.26 in 10.0 mi NNE 8.1 mph - N/A   Overcast
4:56 PM 59.0 °F 48.0 °F 67% 30.25 in 10.0 mi NE 8.1 mph - N/A   Overcast
5:56 PM 57.9 °F 48.9 °F 72% 30.25 in 10.0 mi NNE 8.1 mph - N/A   Overcast
6:56 PM 57.9 °F 48.9 °F 72% 30.23 in 4.0 mi NNE 8.1 mph - N/A   Haze
7:00 PM 57.2 °F 48.2 °F 72% 30.24 in 1.8 mi NNE 9.2 mph - N/A   Haze
7:20 PM 57.2 °F 48.2 °F 72% 30.24 in 1.0 mi NE 9.2 mph - N/A   Haze
7:53 PM 57.2 °F 48.2 °F 72% 30.26 in 1.2 mi NE 4.6 mph - N/A   Haze
7:56 PM 57.0 °F 48.9 °F 74% 30.26 in 2.0 mi NE 4.6 mph - N/A   Haze
8:56 PM 55.9 °F 50.0 °F 80% 30.27 in 4.0 mi ENE 6.9 mph - N/A   Haze
9:56 PM 55.0 °F 48.0 °F 77% 30.30 in 10.0 mi East 6.9 mph - N/A   Mostly Cloudy
10:56 PM 54.0 °F 48.0 °F 80% 30.30 in 10.0 mi East 6.9 mph - N/A   Mostly Cloudy
11:56 PM 53.1 °F 48.0 °F 83% 30.30 in 10.0 mi ENE 6.9 mph - N/A   Overcast